This is the latest recevied weather packets stored in our database for station/object OE3MHU-13. If no packets are shown the sender has not sent any weather packets the latest 10 day(s).
| Time | Temp. | Humidity | Pressure | Rain* | Wind** | Luminosity | Snow |
|---|---|---|---|---|---|---|---|
| 1787596895 | 22.22° C | 51% | 1019.6 hPa | 0 mm | - | - | - |
| 1787596589 | 22.78° C | 51% | 1019.6 hPa | 0 mm | - | - | - |
| 1787596283 | 22.78° C | 50% | 1019.6 hPa | 0 mm | - | - | - |
| 1787595977 | 22.78° C | 50% | 1019.6 hPa | 0 mm | - | - | - |
| 1787595670 | 22.78° C | 50% | 1019.5 hPa | 0 mm | - | - | - |
| 1787595365 | 22.78° C | 50% | 1019.4 hPa | 0 mm | - | - | - |
| 1787595059 | 22.78° C | 50% | 1019.4 hPa | 0 mm | - | - | - |
| 1787594755 | 22.78° C | 50% | 1019.2 hPa | 0 mm | - | - | - |
| 1787594447 | 23.33° C | 50% | 1019.3 hPa | 0 mm | - | - | - |
| 1787594141 | 23.33° C | 50% | 1019.4 hPa | 0 mm | - | - | - |
| 1787593835 | 23.33° C | 49% | 1019.5 hPa | 0 mm | - | - | - |
| 1787593529 | 23.89° C | 49% | 1019.5 hPa | 0 mm | - | - | - |
| 1787593226 | 23.89° C | 48% | 1019.5 hPa | 0 mm | - | - | - |
| 1787592918 | 24.44° C | 47% | 1019.5 hPa | 0 mm | - | - | - |
| 1787592611 | 24.44° C | 46% | 1019.6 hPa | 0 mm | - | - | - |
| 1787592310 | 25° C | 46% | 1019.6 hPa | 0 mm | - | - | - |
| 1787592009 | 25° C | 46% | 1019.6 hPa | 0 mm | - | - | - |
| 1787591707 | 25° C | 45% | 1019.7 hPa | 0 mm | - | - | - |
| 1787591406 | 25.56° C | 45% | 1019.7 hPa | 0 mm | - | - | - |
| 1787591105 | 26.11° C | 44% | 1019.8 hPa | 0 mm | - | - | - |
| 1787590805 | 26.11° C | 43% | 1019.8 hPa | 0 mm | - | - | - |
| 1787590505 | 26.67° C | 44% | 1019.7 hPa | 0 mm | - | - | - |
| 1787590206 | 26.67° C | 42% | 1019.8 hPa | 0 mm | - | - | - |
| 1787589905 | 27.22° C | 43% | 1019.8 hPa | 0 mm | - | - | - |
| 1787589603 | 26.67° C | 43% | 1019.8 hPa | 0 mm | - | - | - |
* Rain latest hour (hover to see other rain measurements)
** Current wind speed in m/s (hover to see current wind gust speed)